Home   Weather   Jodhpur   Past weeks

Flag for India Past Weather in Jodhpur, Rajasthan, India — Yesterday and Last 2 Weeks

Now
77 °F

Haze.


Feels Like: 78 °F
Forecast: 77 / 98 °F
Wind: N/A

Location: Jaipur / Sanganer

Current Time: Sep 25, 2016 at 2:32:14 AM

Latest Report: Sep 25, 2016 at 12:00 AM


Visibility: 3 mi

Pressure: 29.71 "Hg

Humidity: 83%

Dew Point: 72 °F

Location of JodhpurLocation

Past Weather in Jodhpur — Graph

°F

Jodhpur Temperature Yesterday

Maximum temperature yesterday: 93 °F (at 2:30 PM)
Minimum temperature yesterday: 72 °F (at 1:00 AM)
Average temperature yesterday: 82 °F

High & Low Weather Summary for the Past Weeks

 TemperatureHumidityPressure
High100 °F (Sep 21, 3:30 PM)94% (Sep 24, 1:30 AM)29.86 "Hg (Sep 24, 1:30 AM)
Low72 °F (Sep 24, 1:00 AM)27% (Sep 17, 4:30 PM)29.56 "Hg (Sep 22, 9:00 AM)
Average87 °F56%29.75 "Hg
* Reported Sep 9 11:30 PM — Sep 25 12:00 AM, Jodhpur, Weather by CustomWeather, © 2016

Note: Actual official high and low records may vary slightly from our data, if they occured in-between our weather recording intervals... More about our weather records

Advertising

Jodhpur Weather History for the Previous 24 Hours

Scroll right to see more
 ConditionsComfort  
Time TempWeatherWind HumidityBarometerVisibility
12:00 AM
Sun, Sep 25
77 °FHaze.N/A83%29.71 "Hg3 mi
11:00 PM
Sat, Sep 24
77 °FHaze.3 mph83%29.71 "Hg3 mi
10:00 PM79 °FPassing clouds.1 mph74%29.71 "Hg3 mi
9:00 PM79 °FPassing clouds.5 mph74%29.71 "Hg3 mi
8:00 PM81 °FPassing clouds.7 mph70%29.68 "Hg3 mi
7:00 PM82 °FPassing clouds.9 mph66%29.68 "Hg3 mi
6:30 PM82 °FScattered clouds.10 mph66%29.65 "Hg3 mi
6:00 PM84 °FScattered clouds.9 mph58%29.65 "Hg3 mi
5:30 PM84 °FScattered clouds.12 mph62%29.65 "Hg3 mi
5:00 PM84 °FScattered clouds.10 mph66%29.62 "Hg3 mi
4:30 PM86 °FScattered clouds.8 mph55%29.62 "Hg3 mi
4:00 PM88 °FScattered clouds.9 mph49%29.62 "Hg3 mi
3:00 PM93 °FScattered clouds.5 mph47%29.65 "Hg3 mi
2:30 PM93 °FScattered clouds.3 mph49%29.65 "Hg3 mi
2:00 PM91 °FScattered clouds.6 mph49%29.68 "Hg3 mi
1:30 PM91 °FScattered clouds.6 mph46%29.68 "Hg3 mi
12:00 PM90 °FScattered clouds.6 mph52%29.74 "Hg3 mi
11:30 AM90 °FScattered clouds.3 mph55%29.77 "Hg3 mi
11:00 AM88 °FScattered clouds.3 mph59%29.74 "Hg4 mi
10:30 AM86 °FPassing clouds.5 mph66%29.74 "Hg4 mi
10:00 AM86 °FPassing clouds.7 mph66%29.77 "Hg4 mi
9:30 AM86 °FPassing clouds.5 mph66%29.74 "Hg4 mi
9:00 AM82 °FPassing clouds.5 mph74%29.74 "Hg4 mi
8:00 AM79 °FPassing clouds.5 mph79%29.74 "Hg4 mi
7:30 AM77 °FHaze.5 mph89%29.74 "Hg3 mi
7:00 AM73 °FScattered clouds.5 mph89%29.71 "Hg3 mi
5:30 AM73 °FPassing clouds.5 mph83%29.71 "Hg2 mi
5:00 AM73 °FPassing clouds.9 mph69%29.65 "Hg1 mi
2:40 AM72 °FPartly cloudy.12 mph88%29.68 "Hg1 mi
2:00 AM72 °FThunderstorms. Partly cloudy.15 mph83%29.74 "Hg0 mi
Weather by CustomWeather, © 2016

See weather overviewHow to use our weather pages